sat.trackr.live / text

‹ back to catalog

STARLINK-3060

NORAD 49155 · 2021-082AB

PAYLOAD ACTIVE UNKNOWN

§ Identity

Operator
Country
US
Launch date
2021-09-14
Launch site
AFWTR
Launch vehicle
Mass (kg)
RCS (m²)

Purposes: comms

External: N2YO · Heavens-Above · Gunter

§ Orbital elements

Epoch: 2026-09-20T02:26:39.039936Z

Period
96.11 min
Inclination
69.9984°
Eccentricity
0.0002653
Mean motion
14.98328881 rev/d
Perigee alt
570.2 km
Apogee alt
573.9 km
Semi-major
6,950.2 km
B*
5.2639e-5
RAAN
124.2674°
Arg perigee
270.4049°
Mean anomaly
89.6806°
Rev number
27,716

§ Raw data

STARLINK-30601 49155U 21082AB  26263.10184074  .00000535  00000+0  52639-4 0  99922 49155  69.9984 124.2674 0002653 270.4049  89.6806 14.98328881277161

JSON: /api/v1/satellites/49155 · /tle

For live sub-satellite position, see the globe view (requires WebGL).

§ Visibility from observer

Set your observer location to see the next 7 days of passes ≥ 10°. The values pass through the URL so the page stays shareable.

No JS? Fill the form by hand. The geolocation button needs JavaScript.